Location: Batang Balui
(2.7000°N, 113.7833°E)
Time: 23:30:14
(UTC+00:00)

Meteor 1-11 Rocket - Pass Details

Date: 03 December 2021
Orbit: 831 x 915 km, 81.2° (Epoch: 27 January)

Event Time Altitude Azimuth Distance (km) Brightness Sun altitude
Exits shadow 11:29:39 30° 54° (NE) 1,535 4.5 -18.3°
Maximum altitude 11:31:14 35° 85° (E) 1,401 4.3 -18.7°
Drops below altitude 10° 11:36:29 10° 149° (SSE) 2,572 6.1 -19.9°
Sets 11:39:10 0° 158° (SSE) 3,525 6.9 -20.5°
